This is the latest recevied weather packets stored in our database for station/object W0BJ. If no packets are shown the sender has not sent any weather packets the latest 10 day(s).
| Time | Temp. | Humidity | Pressure | Rain* | Wind** | Luminosity | Snow |
|---|---|---|---|---|---|---|---|
| 1777820544 | 16.67° C | 48% | 1020.1 hPa | 0 mm | - | - | - |
| 1777819997 | 16.67° C | 48% | 1020.1 hPa | 0 mm | - | - | - |
| 1777819943 | 16.67° C | 48% | 1020.1 hPa | 0 mm | - | - | - |
| 1777819343 | 15.56° C | 49% | 1020.3 hPa | 0 mm | - | - | - |
| 1777819099 | 15.56° C | 48% | 1020.3 hPa | 0 mm | - | - | - |
| 1777818745 | 15.56° C | 48% | 1020.5 hPa | 0 mm | - | - | - |
| 1777818198 | 15.56° C | 48% | 1020.5 hPa | 0 mm | - | - | - |
| 1777818144 | 15.56° C | 49% | 1020.5 hPa | 0 mm | - | - | - |
| 1777817543 | 15° C | 50% | 1020.5 hPa | 0 mm | - | - | - |
| 1777817297 | 14.44° C | 50% | 1020.6 hPa | 0 mm | - | - | - |
| 1777816945 | 14.44° C | 51% | 1020.7 hPa | 0 mm | - | - | - |
| 1777816399 | 13.89° C | 53% | 1020.8 hPa | 0 mm | - | - | - |
| 1777816344 | 13.89° C | 53% | 1020.9 hPa | 0 mm | - | - | - |
| 1777815744 | 13.33° C | 52% | 1020.7 hPa | 0 mm | - | - | - |
| 1777815498 | 13.33° C | 53% | 1020.6 hPa | 0 mm | - | - | - |
| 1777815143 | 13.33° C | 53% | 1020.6 hPa | 0 mm | - | - | - |
| 1777814599 | 12.78° C | 55% | 1021 hPa | 0 mm | - | - | - |
| 1777814545 | 12.78° C | 55% | 1021 hPa | 0 mm | - | - | - |
| 1777813944 | 12.22° C | 55% | 1021.1 hPa | 0 mm | - | - | - |
| 1777813698 | 12.22° C | 56% | 1021 hPa | 0 mm | - | - | - |
| 1777813344 | 11.67° C | 57% | 1020.8 hPa | 0 mm | - | - | - |
| 1777812797 | 11.67° C | 58% | 1021 hPa | 0 mm | - | - | - |
| 1777812743 | 11.67° C | 58% | 1021.1 hPa | 0 mm | - | - | - |
| 1777812144 | 11.11° C | 58% | 1021 hPa | 0 mm | - | - | - |
| 1777811898 | 11.11° C | 59% | 1021.1 hPa | 0 mm | - | - | - |
* Rain latest hour (hover to see other rain measurements)
** Current wind speed in m/s (hover to see current wind gust speed)